Weather History for Holland, MI

Change the Weather History Date:

Saturday, September 28, 2013

  Actual Average Record
Temperature  
Mean Temperature 68 °F 59 °F  
Max Temperature 82 °F 69 °F 84 °F (1971)
Min Temperature 53 °F 49 °F 27 °F (1991)
Degree Days  
Heating Degree Days 0 7  
Month to date heating degree days 104 100  
Since 1 July heating degree days 123 115  
Cooling Degree Days 3 1  
Month to date cooling degree days 90 61  
Year to date cooling degree days 797 679  
Growing Degree Days 17 (Base 50)    
Moisture  
Dew Point 53 °F    
Average Humidity 65    
Maximum Humidity 93    
Minimum Humidity 36    
Precipitation  
Precipitation 0.00 in 0.17 in 2.65 in (1973)
Month to date precipitation 0.88 3.53  
Year to date precipitation 28.89 26.74  
Sea Level Pressure  
Sea Level Pressure 30.06 in    
Wind  
Wind Speed 9 mph (SE)    
Max Wind Speed 17 mph    
Max Gust Speed 24 mph    
Visibility 10 miles    
Events      
T = Trace of Precipitation, MM = Missing Value Source: NWS Daily Summary

Daily Weather History Graph

Daily Weather History Graph

Search for Another Location

Airport:

Trip Planner

Search our weather history database for the weather conditions in past years. The results will help you decide how hot, cold, wet, or windy it might be!

Date:

Astronomy

Sep. 28, 2013 Rise Set
Actual Time 7:38 AM EDT 7:30 PM EDT
Civil Twilight 7:10 AM EDT 7:58 PM EDT
Nautical Twilight 6:37 AM EDT 8:31 PM EDT
Astronomical Twilight 6:04 AM EDT 9:04 PM EDT
Moon 1:18 AM EDT 3:55 PM EDT
Length of Visible Light 12h 48m
Length of Day
11h 52m
Last Quarter, 36% of the Moon is Illuminated
Sep 28
Last Quarter
Oct 4
New
Oct 11
First Quarter
Oct 18
Full
Oct 26
Last Quarter

Hourly Weather History & Observations

Time (EDT) Temp. Dew Point Humidity Pressure Visibility Wind Dir Wind Speed Gust Speed Precip Events Conditions
12:53 AM 60.1 °F 54.0 °F 80% 30.15 in 10.0 mi SE 8.1 mph - N/A   Clear
1:53 AM 59.0 °F 52.0 °F 78% 30.14 in 10.0 mi SE 5.8 mph - N/A   Clear
2:53 AM 57.0 °F 50.0 °F 77% 30.14 in 10.0 mi ESE 8.1 mph - N/A   Clear
3:53 AM 55.9 °F 51.1 °F 84% 30.13 in 10.0 mi ESE 8.1 mph - N/A   Clear
4:53 AM 55.0 °F 52.0 °F 89% 30.13 in 10.0 mi ESE 5.8 mph - N/A   Clear
5:53 AM 54.0 °F 52.0 °F 93% 30.13 in 10.0 mi ESE 5.8 mph - N/A   Clear
6:53 AM 54.0 °F 52.0 °F 93% 30.13 in 10.0 mi East 5.8 mph - N/A   Clear
7:53 AM 53.1 °F 51.1 °F 93% 30.13 in 10.0 mi ESE 4.6 mph - N/A   Clear
8:53 AM 57.0 °F 53.1 °F 87% 30.14 in 10.0 mi SSE 6.9 mph - N/A   Clear
9:53 AM 62.1 °F 54.0 °F 75% 30.14 in 10.0 mi SSE 8.1 mph - N/A   Clear
10:53 AM 68.0 °F 55.9 °F 65% 30.13 in 10.0 mi SSE 8.1 mph - N/A   Clear
11:53 AM 73.0 °F 55.9 °F 55% 30.11 in 10.0 mi SSE 9.2 mph - N/A   Clear
12:53 PM 77.0 °F 55.0 °F 47% 30.09 in 10.0 mi South 10.4 mph - N/A   Clear
1:53 PM 79.0 °F 55.0 °F 44% 30.06 in 10.0 mi SSE 11.5 mph 20.7 mph N/A   Clear
2:53 PM 79.0 °F 51.1 °F 38% 30.02 in 10.0 mi South 13.8 mph - N/A   Clear
3:53 PM 80.1 °F 51.1 °F 36% 30.01 in 10.0 mi SSE 12.7 mph - N/A   Clear
4:53 PM 81.0 °F 52.0 °F 36% 29.99 in 10.0 mi South 13.8 mph - N/A   Clear
5:53 PM 80.1 °F 52.0 °F 38% 29.98 in 10.0 mi South 12.7 mph - N/A   Clear
6:53 PM 73.9 °F 54.0 °F 50% 29.97 in 10.0 mi SE 6.9 mph - N/A   Clear
7:53 PM 70.0 °F 54.0 °F 57% 29.96 in 10.0 mi SE 9.2 mph - N/A   Clear
8:53 PM 69.1 °F 54.0 °F 58% 29.95 in 10.0 mi SE 8.1 mph - N/A   Clear
9:53 PM 71.1 °F 53.1 °F 53% 29.95 in 10.0 mi SSE 9.2 mph - N/A   Clear
10:53 PM 72.0 °F 53.1 °F 51% 29.94 in 10.0 mi South 9.2 mph - N/A   Overcast
11:53 PM 73.0 °F 54.0 °F 51% 29.93 in 10.0 mi South 11.5 mph - N/A   Overcast